OPS 4682 DEB, 38442

Orbit data source: Space-Track

OPS 4682 DEB, 38442 is space debris in LEO originally from a launch on Sat, 03 Apr 1965 UTC launched from the Air Force Western Test Range (AFWTR). Debris objects in space refer to the collection of defunct objects orbiting the Earth. Examples of debris include non-operational satellites, rocket bodies, and fragments generated from explosions, collisions, or faulty payload assembly.

Loading next visibility...
Identifier
38442, 1965-027EX
Orbit
LEO
Country
Flag of USUS
Related business
Manufacturer
Unknown
Mission
Spacecraft
Bus & Motor
Unknown
Mass
Unknown
Launch date (UTC)
1965-04-03 (61 years ago)
Launch vehicle
Unknown
Launch site
Air Force Western Test Range (AFWTR)
Object type
Payload
Rocket body
Debris
Shape & HBR
Unknown shape, 0.1 m
Radar Cross Section
Small (<0.1 m²)

Expand to show TLE details & history
Last TLE update: 2 days ago

TLE from 2 days ago
0 OPS 4682 DEB
1 38442U 65027EX  25347.74189855  .00000114  00000-0  38531-3 0  9998
2 38442  90.2399   1.6998 0032698   3.1634 356.9686 12.93928908563595
Epoch: 2025-12-13T17:48Z
TLE epoch observation values (Epoch: 2025-12-13T17:48:20.034Z)
Latitude
0.00002°
Longitude
11.95152°
Altitude
1,263.812 km
Speed
7.235 km/s
True Right ascension
00h 06m 47s
True Declination
0° 00' 00"
Sunlit
Object was in daylight at epoch
Visualization orbit readout
Latitude
Unknown
Longitude
Unknown
Altitude
Unknown
Speed
Unknown
Apparent Right ascension
Unknown
Apparent Declination
Unknown
Sunlit
N/A
Visualization observer readout
Local Sidereal Time
16:54:10
Azimuth
Unknown
Elevation
Unknown
Doppler factor
Unknown
Orbital elements
Apogee altitude
1,308.153 km
Perigee altitude
1,258.052 km
Semi-major axis
7,661.239 km
Eccentricity
0.00327
Inclination
90.2399°
RAAN
1.6998°
Arg. of periapsis
3.1634°
True anomaly
356.9487°
Mean anomaly
356.9686°
Eccentric anomaly
356.95866°
Mean motion
3.23664 °/min
Orbital period
111.23 mins
BSTAR
0.00038531
Loading maneuver chart data...
Computing Atmospheric mass density...
Loading historical data...
Loading historical data...
Loading historical data...
Loading historical data...
Loading historical data...
Loading historical data...
Loading historical data...

Documentation

Showing up to 5 results
|